Regional Weather Roundup
Issued by NWS Boston, MA

Current Version | Previous Version | Text Only | Print | Product List | Glossary Off
Versions: 1 2 3 4 5 6 7 8 9 10 11 12 13 14 15 16 17 18 19 20 21 22 23 24 25 26 27
000 ASUS41 KBOX 191910 RWRBOX REGIONAL WEATHER ROUNDUP NATIONAL WEATHER SERVICE TAUNTON MA 300 PM EDT SAT AUG 19 2017 NOTE: "FAIR" INDICATES FEW OR NO CLOUDS BELOW 12,000 FEET WITH NO SIGNIFICANT WEATHER AND/OR OBSTRUCTIONS TO VISIBILITY. MAZALL-192000- EASTERN MASSACHUSETTS CITY SKY/WX TMP DP RH WIND PRES REMARKS BOSTON PTSUNNY 71 66 84 E8 29.80R HAZE BEVERLY PTSUNNY 74 67 78 SE7 29.78F LAWRENCE PTSUNNY 84 69 60 W5 29.79F BEDFORD MOSUNNY 88 59 37 W12G20 29.77S BLUE HILL N/A 89 61 38 W15G22 29.79F NORWOOD PTSUNNY 91 64 40 SW15G21 29.77S HX 92 MARSHFIELD CLOUDY 70 68 94 VRB7 29.80S FOG PLYMOUTH MOSUNNY 84 73 69 S10 29.79F HX 90 TAUNTON MOSUNNY 89 66 46 SW12 29.78R HX 91 NEW BEDFORD SUNNY 86 73 65 S15 29.78S HX 93 $$ MAZALL-192000- CAPE COD AND THE ISLANDS CITY SKY/WX TMP DP RH WIND PRES REMARKS FALMOUTH MOSUNNY 82 73 74 S13 29.81S HYANNIS SUNNY 79 73 82 S7 29.79F CHATHAM SUNNY 80 75 84 SW8 29.81F PROVINCETOWN CLOUDY 71 66 84 N5 29.81F NANTUCKET MOSUNNY 75 73 93 SW13 29.81F MARTHAS VNYRD SUNNY 82 73 74 SW12 29.81F $$ MAZALL-192000- CENTRAL AND WESTERN MASSACHUSETTS CITY SKY/WX TMP DP RH WIND PRES REMARKS WORCESTER MOSUNNY 83 58 42 W13 29.84F FITCHBURG PTSUNNY 86 63 45 W10 29.81S ORANGE MOSUNNY 83 63 50 SW9 29.81F SPRINGFIELD MOSUNNY 85 58 39 W13 29.79F WESTFIELD SUNNY 87 58 37 W15 29.81F NORTH ADAMS MOSUNNY 79 64 60 W8 29.83F PITTSFIELD PTSUNNY 78 62 57 W8 29.85F $$ RIZALL-192000- RHODE ISLAND CITY SKY/WX TMP DP RH WIND PRES REMARKS PROVIDENCE PTSUNNY 91 64 40 W13G20 29.80S HX 92 NEWPORT SUNNY 84 69 60 SW12G21 29.80F BLOCK ISLAND SUNNY 82 69 64 W10 29.83S WESTERLY SUNNY 85 64 49 W10G20 29.83S $$ CTZALL-192000- CONNECTICUT CITY SKY/WX TMP DP RH WIND PRES REMARKS BRADLEY INTL MOSUNNY 87 62 43 VRB5 29.81F HARTFORD MOSUNNY 88 61 40 W13 29.80F BRIDGEPORT SUNNY 85 65 51 SW12 29.83F DANBURY MOSUNNY 82 64 54 W6 29.86F GROTON SUNNY 85 65 51 SW13 29.81F NEW HAVEN MOSUNNY 84 66 54 SW10G18 29.83F CHESTER FAIR 84 64 51 W10 29.84S MERIDEN MOSUNNY 85 63 47 W8 29.82F WILLIMANTIC MOSUNNY 86 65 49 NW12 29.81F OXFORD PTSUNNY 82 63 52 W12 29.87S $$ MEZ002-015-021-024-NHZ003-005-008-011-012-014-VTZ005-008-192000- NORTHERN NEW ENGLAND CITY SKY/WX TMP DP RH WIND PRES REMARKS PORTLAND ME MOSUNNY 75 65 70 SE13 29.78S BANGOR ME CLOUDY 72 64 76 CALM 29.79S CONCORD NH SUNNY 87 63 44 W10 29.78S MANCHESTER NH MOSUNNY 85 60 42 VRB7 29.76F NASHUA NH MOSUNNY 85 65 51 W8G17 29.79S PORTSMOUTH NH PTSUNNY 81 69 66 SE5 29.76F JAFFREY NH MOSUNNY 81 63 54 W8 29.84S KEENE NH N/A N/A N/A N/A MISG N/A BURLINGTON VT CLOUDY 80 67 64 NW8 29.75F MT. WASHINGTON FOG 55 55 100 W22G29 N/A VSB 0 $$ NYZ052-076-192000- EASTERN NEW YORK CITY SKY/WX TMP DP RH WIND PRES REMARKS ALBANY PTSUNNY 80 64 58 VRB5 29.82F NEW YORK CITY PTSUNNY 87 61 41 W14 29.83F $$ ANZALL-192000- MARINE OBSERVATIONS STATION/POSITION TIME TEMP WIND PRES VSBY WAVE AIR SEA DIR/SP/G HT/PER (UTC) (F) (DEG/KT/KT) (MB) (MI) (FT/S) BOSTON BUOY 1850 65 67 80/ 8/ 10 1008.8F 1/ 8 BUZZARDS BAY 1800 70 200/ 13/ 14 1009.8F NANTUCKET SOUND 1750 70 71 220/ 10/ 10 1009.5 1/ 5 MASS BAY-STELLWA 1804 65 66 110/ 6/ 8 1008.8F 2/ 5 ISLE OF SHOALS 1800 65 140/ 11/ 11 1008.6F S OF BLOCK IS NOT AVBL $$ ......................KEY......................... SKY/WX - SKY CONDITION/PRESENT WEATHER TMP - TEMPERATURE IN FAHRENHEIT DWPT - DEWPOINT IN FAHRENHEIT RH - RELATIVE HUMIDITY IN PERCENT WIND - DIRECTION AND SPEED IN MPH PRES - MEAN SEA LEVEL PRESSURE IN INCHES OF HG WCI - WIND CHILL INDEX VSB - VISIBILITY IN MILES HX - HEAT INDEX TC - TEMPERATURE IN CELSIUS VRB - VARIABLE WIND DIRECTION N/A - NOT AVAILABLE

USA.gov is the U.S. government's official web portal to all federal, state and local government web resources and services.